Location: Newark
(25.0000°N, 73.5000°E)
Time: 12:01:25
(UTC+00:00)

Courier 1B Rocket - Visible Passes

Search period start: 07 March 2021 00:00
Search period end: 17 March 2021 00:00
Orbit: 920 x 1202 km, 28.2° (Epoch: 06 March)

Date Brightness Start Highest point End Pass type
(mag) Time Alt. Az. Time Alt. Az. Time Alt. Az.
07 Mar 6.4 14:34:41 10° W 14:41:44 39° SSW 14:47:02 18° SSE visible
07 Mar 7.7 16:32:28 10° SW 16:33:25 11° SW 16:33:25 11° SW visible
08 Mar 6.1 13:33:11 10° W 13:40:31 52° SSW 13:48:04 10° SE visible
08 Mar 7.2 15:28:48 10° WSW 15:33:55 19° SSW 15:36:36 16° S visible
09 Mar 7.0 14:26:31 10° W 14:32:46 27° SSW 14:39:08 10° SSE visible
10 Mar 6.6 13:24:46 10° W 13:31:35 38° SSW 13:38:38 10° SE visible
10 Mar 7.7 15:22:35 10° SW 15:24:58 11° SSW 15:27:20 10° SSW visible
11 Mar 7.5 14:18:55 10° WSW 14:23:47 18° SSW 14:28:46 10° S visible
13 Mar 7.8 14:13:11 10° SW 14:14:52 11° SSW 14:16:35 10° SSW visible
